Simultaneous Nadir Overpasses (SNOs) Predictions

Prediction of SNOs between GOES-14 and NOAA-20 Satellite Orbit:

Table of predicted SNOs for the next 14.0 days since TLE Epoch: 10/9/2021
Index Date Time (GOES-14) GOES-14 Lat,Lon NOAA-20 Lat,Lon Distance(km) Time Diff (sec)
1 10/10/2021 20:20:56 -0.29,-104.22 -0.34,-104.41 21.90 80
2 10/11/2021 20:04:51 -0.29,-104.23 0.71, -99.88 495.89 80
3 10/13/2021 08:26:39 0.27,-104.27 0.45,-105.15 100.17 80
4 10/14/2021 08:05:13 0.28,-104.26 -0.54,-100.61 415.28 80
5 10/15/2021 20:27:10 -0.25,-104.20 -0.61,-105.92 195.95 80
6 10/16/2021 20:11:04 -0.26,-104.21 0.38,-101.39 322.28 80
7 10/18/2021 08:32:51 0.23,-104.30 0.78,-106.66 268.65 80
8 10/19/2021 08:11:26 0.25,-104.30 -0.21,-102.12 247.53 80
9 10/20/2021 20:33:22 -0.22,-104.21 -0.93,-107.43 367.09 80
10 10/21/2021 20:17:17 -0.24,-104.22 0.06,-102.89 151.45 80
